N210MA KGPI-KMSO

Flight info

Callsign N210MA
Flight time N/A
Altitude 5000
Route /
Aircraft UH1/L-S/L

Departure

Time 2026-04-20 18:21
Airport Glacier Park International Airport (KGPI)

Arrival

Time N/A
Airport Missoula Montana Airport (KMSO)
Time Latitude Longitude Altitude Speed Heading
2026-04-20 18:03 48.31803 -114.24366 2971 ft 0 kts 34°
2026-04-20 18:08 48.31803 -114.24365 2971 ft 0 kts 34°
2026-04-20 18:10 48.31803 -114.24366 2971 ft 0 kts 35°
2026-04-20 18:12 48.31803 -114.24367 2971 ft 0 kts 35°
2026-04-20 18:12 48.31804 -114.24367 2971 ft 0 kts 35°
2026-04-20 18:18 48.31804 -114.24368 2971 ft 0 kts 35°
2026-04-20 18:20 48.31805 -114.24367 2971 ft 0 kts 36°
2026-04-20 18:20 48.31830 -114.24282 3032 ft 34 kts 71°
2026-04-20 18:21 48.31904 -114.23948 3122 ft 64 kts 67°
2026-04-20 18:21 48.32332 -114.23146 3463 ft 83 kts 44°
2026-04-20 18:21 48.32753 -114.22381 3579 ft 103 kts 48°
2026-04-20 18:21 48.33056 -114.21797 3661 ft 109 kts 43°
2026-04-20 18:22 48.33570 -114.20957 3717 ft 111 kts 37°
2026-04-20 18:22 48.34125 -114.20144 3732 ft 117 kts 48°
2026-04-20 18:22 48.34584 -114.19106 3723 ft 120 kts 47°
2026-04-20 18:22 48.35071 -114.18091 3806 ft 115 kts 48°
2026-04-20 18:23 48.35558 -114.17181 3953 ft 111 kts 45°
2026-04-20 18:23 48.36108 -114.16254 3880 ft 126 kts 42°
2026-04-20 18:23 48.36771 -114.15304 3858 ft 126 kts 37°
2026-04-20 18:23 48.37387 -114.14379 3873 ft 124 kts 44°
2026-04-20 18:24 48.37903 -114.13369 4003 ft 116 kts 51°
2026-04-20 18:24 48.38276 -114.12298 4063 ft 118 kts 65°
2026-04-20 18:24 48.38527 -114.11131 4186 ft 118 kts 62°
2026-04-20 18:24 48.38783 -114.09909 4118 ft 128 kts 78°
2026-04-20 18:25 48.38640 -114.08555 4063 ft 133 kts 106°
2026-04-20 18:25 48.38581 -114.07281 4247 ft 121 kts 55°
2026-04-20 18:25 48.39299 -114.06956 4195 ft 122 kts 324°
2026-04-20 18:25 48.39350 -114.07955 4191 ft 122 kts 208°
2026-04-20 18:26 48.38559 -114.07758 4202 ft 125 kts 130°
2026-04-20 18:26 48.38134 -114.06576 4119 ft 135 kts 112°
2026-04-20 18:26 48.37455 -114.05579 4008 ft 135 kts 147°
2026-04-20 18:26 48.36679 -114.04832 4003 ft 131 kts 139°
2026-04-20 18:27 48.35932 -114.04081 4001 ft 128 kts 146°
2026-04-20 18:27 48.35135 -114.03438 3937 ft 133 kts 148°
2026-04-20 18:27 48.34372 -114.02666 3960 ft 127 kts 131°
2026-04-20 18:27 48.33961 -114.01466 3901 ft 133 kts 107°
2026-04-20 18:28 48.33563 -114.00228 3852 ft 130 kts 125°
2026-04-20 18:28 48.33108 -113.99147 3944 ft 124 kts 98°
2026-04-20 18:28 48.32598 -113.98111 3863 ft 126 kts 139°
2026-04-20 18:28 48.32185 -113.97079 4061 ft 119 kts 91°
2026-04-20 18:29 48.32389 -113.95838 4037 ft 128 kts 58°
2026-04-20 18:29 48.32929 -113.94757 4037 ft 133 kts 41°
2026-04-20 18:29 48.33509 -113.93631 3987 ft 136 kts 59°
2026-04-20 18:29 48.33885 -113.92336 3952 ft 136 kts 81°
2026-04-20 18:30 48.33599 -113.91221 4352 ft 111 kts 147°
2026-04-20 18:30 48.32902 -113.90648 4500 ft 121 kts 157°
2026-04-20 18:30 48.32090 -113.90334 4668 ft 109 kts 202°
2026-04-20 18:30 48.31977 -113.91504 4489 ft 134 kts 226°
2026-04-20 18:31 48.31117 -113.91305 4209 ft 142 kts 137°
2026-04-20 18:31 48.30425 -113.90364 4024 ft 122 kts 129°
2026-04-20 18:31 48.29812 -113.89591 3857 ft 105 kts 147°
2026-04-20 18:31 48.29291 -113.88996 3825 ft 87 kts 143°
2026-04-20 18:32 48.28787 -113.88437 3755 ft 93 kts 154°
2026-04-20 18:32 48.28197 -113.87935 3738 ft 106 kts 153°
2026-04-20 18:32 48.27533 -113.87274 3759 ft 120 kts 142°
2026-04-20 18:32 48.26841 -113.86548 3819 ft 125 kts 148°
2026-04-20 18:33 48.26012 -113.86160 3877 ft 126 kts 167°
2026-04-20 18:33 48.25200 -113.85722 3933 ft 123 kts 151°
2026-04-20 18:33 48.24484 -113.85071 3913 ft 109 kts 142°
2026-04-20 18:33 48.24028 -113.84883 4066 ft 43 kts 225°
2026-04-20 18:34 48.23912 -113.85194 4023 ft 32 kts 291°
2026-04-20 18:34 48.24022 -113.85453 4005 ft 40 kts 347°
2026-04-20 18:34 48.24224 -113.85571 3858 ft 8 kts 142°
2026-04-20 18:34 48.24108 -113.85466 3822 ft 26 kts 135°
2026-04-20 18:35 48.24038 -113.85216 3825 ft 16 kts 270°
2026-04-20 18:35 48.24019 -113.85241 3824 ft 3 kts 279°
2026-04-20 18:35 48.24016 -113.85234 3798 ft 2 kts 282°
2026-04-20 18:35 48.24015 -113.85243 3779 ft 1 kts 275°
2026-04-20 18:36 48.24015 -113.85244 3775 ft 0 kts 275°
2026-04-20 18:36 48.24020 -113.85262 3783 ft 10 kts 279°
2026-04-20 18:36 48.24287 -113.85322 3772 ft 69 kts 54°
2026-04-20 18:37 48.24065 -113.84668 3833 ft 90 kts 134°
2026-04-20 18:37 48.23606 -113.83839 3839 ft 115 kts 118°
2026-04-20 18:37 48.23195 -113.82728 3877 ft 127 kts 116°
2026-04-20 18:37 48.22770 -113.81550 4039 ft 122 kts 120°
2026-04-20 18:38 48.22228 -113.80620 4177 ft 130 kts 137°
2026-04-20 18:38 48.21551 -113.79520 4047 ft 140 kts 131°
2026-04-20 18:38 48.20802 -113.78576 4192 ft 139 kts 147°
2026-04-20 18:38 48.19955 -113.77987 4476 ft 133 kts 165°
2026-04-20 18:39 48.19076 -113.77632 4738 ft 130 kts 166°
2026-04-20 18:39 48.18185 -113.77237 4856 ft 138 kts 162°
2026-04-20 18:39 48.17262 -113.76830 4947 ft 137 kts 164°
2026-04-20 18:39 48.16347 -113.76717 5062 ft 129 kts 187°
2026-04-20 18:40 48.15522 -113.77109 5230 ft 122 kts 206°
2026-04-20 18:40 48.14863 -113.77753 5390 ft 105 kts 214°
2026-04-20 18:40 48.14387 -113.78533 5494 ft 98 kts 235°
2026-04-20 18:40 48.14126 -113.79493 5535 ft 108 kts 249°
2026-04-20 18:41 48.13793 -113.80583 5560 ft 121 kts 238°
2026-04-20 18:41 48.13286 -113.81630 5820 ft 125 kts 226°
2026-04-20 18:41 48.12650 -113.82503 6126 ft 120 kts 220°
2026-04-20 18:41 48.12020 -113.83312 6388 ft 117 kts 219°
2026-04-20 18:42 48.11418 -113.84077 6697 ft 113 kts 218°
2026-04-20 18:42 48.10757 -113.84836 6817 ft 125 kts 219°
2026-04-20 18:42 48.10145 -113.85726 6999 ft 124 kts 228°
2026-04-20 18:42 48.09685 -113.86858 7089 ft 132 kts 242°
2026-04-20 18:43 48.09687 -113.88217 6734 ft 132 kts 295°
2026-04-20 18:43 48.10294 -113.89064 6374 ft 119 kts 310°
2026-04-20 18:43 48.10679 -113.90130 5818 ft 118 kts 251°
2026-04-20 18:43 48.10503 -113.91298 5330 ft 109 kts 259°
2026-04-20 18:44 48.10381 -113.92319 5045 ft 90 kts 265°
2026-04-20 18:44 48.10141 -113.93188 4778 ft 100 kts 233°
2026-04-20 18:44 48.09626 -113.93891 4672 ft 101 kts 228°
2026-04-20 18:44 48.09137 -113.94704 4519 ft 110 kts 235°
2026-04-20 18:45 48.08628 -113.95534 4510 ft 104 kts 224°
2026-04-20 18:45 48.08053 -113.96196 4502 ft 107 kts 212°
2026-04-20 18:45 48.07418 -113.96857 4434 ft 117 kts 212°
2026-04-20 18:45 48.06726 -113.97543 4478 ft 120 kts 211°
2026-04-20 18:46 48.06034 -113.98281 4482 ft 122 kts 211°
2026-04-20 18:46 48.05304 -113.98921 4526 ft 125 kts 204°
2026-04-20 18:46 48.04525 -113.99554 4512 ft 129 kts 201°
2026-04-20 18:46 48.03713 -114.00089 4588 ft 126 kts 197°
2026-04-20 18:47 48.02889 -114.00538 4661 ft 125 kts 196°
2026-04-20 18:47 48.02143 -114.01127 4863 ft 110 kts 208°
2026-04-20 18:47 48.01398 -114.01714 4779 ft 132 kts 199°
2026-04-20 18:47 48.00492 -114.02261 4594 ft 144 kts 201°
2026-04-20 18:48 47.99526 -114.02796 4343 ft 153 kts 200°
2026-04-20 18:48 47.98540 -114.03456 4057 ft 156 kts 199°
2026-04-20 18:48 47.97793 -114.03832 3907 ft 158 kts 192°
2026-04-20 18:49 47.97331 -114.03999 3927 ft 153 kts 188°
2026-04-20 18:49 47.96300 -114.04261 3972 ft 147 kts 183°
2026-04-20 18:49 47.95310 -114.04391 4089 ft 139 kts 181°
2026-04-20 18:50 47.94370 -114.04485 4060 ft 131 kts 181°
2026-04-20 18:50 47.93473 -114.04467 4032 ft 129 kts 174°
2026-04-20 18:50 47.92571 -114.04399 4001 ft 128 kts 179°
2026-04-20 18:50 47.91655 -114.04400 3885 ft 137 kts 180°
2026-04-20 18:51 47.90686 -114.04385 3744 ft 142 kts 176°
2026-04-20 18:51 47.89681 -114.04280 3445 ft 156 kts 168°
2026-04-20 18:51 47.88689 -114.04075 3424 ft 131 kts 176°
2026-04-20 18:51 47.87839 -114.04101 3449 ft 114 kts 183°
2026-04-20 18:52 47.87074 -114.04159 3478 ft 108 kts 187°
2026-04-20 18:52 47.86304 -114.04327 3442 ft 114 kts 189°
2026-04-20 18:52 47.85508 -114.04505 3421 ft 118 kts 187°
2026-04-20 18:52 47.84670 -114.04470 3338 ft 124 kts 170°
2026-04-20 18:53 47.83866 -114.03962 3210 ft 131 kts 136°
2026-04-20 18:53 47.83136 -114.03396 3253 ft 116 kts 158°
2026-04-20 18:53 47.82561 -114.02555 3144 ft 117 kts 158°
2026-04-20 18:53 47.81774 -114.02405 3110 ft 112 kts 166°
2026-04-20 18:54 47.81056 -114.02032 3095 ft 111 kts 155°
2026-04-20 18:54 47.80313 -114.01846 3106 ft 105 kts 184°
2026-04-20 18:54 47.79611 -114.01943 3163 ft 100 kts 190°
2026-04-20 18:54 47.78913 -114.01917 3173 ft 101 kts 159°
2026-04-20 18:55 47.78262 -114.01672 3225 ft 100 kts 179°
2026-04-20 18:55 47.77542 -114.01545 3215 ft 102 kts 184°
2026-04-20 18:55 47.76828 -114.01604 3222 ft 107 kts 177°
2026-04-20 18:55 47.76114 -114.01646 3243 ft 101 kts 223°
2026-04-20 18:56 47.75455 -114.02017 3152 ft 107 kts 187°
2026-04-20 18:56 47.74837 -114.02440 3194 ft 96 kts 219°
2026-04-20 18:56 47.74227 -114.02803 3168 ft 87 kts 192°
2026-04-20 18:56 47.73658 -114.02762 3194 ft 85 kts 170°
2026-04-20 18:57 47.73218 -114.03131 3197 ft 77 kts 234°
2026-04-20 18:57 47.72782 -114.03685 3104 ft 90 kts 207°
2026-04-20 18:57 47.72234 -114.04088 3138 ft 79 kts 202°
2026-04-20 18:57 47.71682 -114.04444 3057 ft 93 kts 200°
2026-04-20 18:58 47.71069 -114.04737 3085 ft 94 kts 192°
2026-04-20 18:58 47.70484 -114.05111 3178 ft 94 kts 196°
2026-04-20 18:58 47.69802 -114.05105 3174 ft 100 kts 171°
2026-04-20 18:58 47.69152 -114.05269 3278 ft 89 kts 200°
2026-04-20 18:59 47.68567 -114.05690 3319 ft 100 kts 201°
2026-04-20 18:59 47.67931 -114.06097 3398 ft 103 kts 193°
2026-04-20 18:59 47.67256 -114.06408 3557 ft 101 kts 191°
2026-04-20 18:59 47.66551 -114.06703 3649 ft 108 kts 190°
2026-04-20 19:00 47.65810 -114.06946 3842 ft 113 kts 186°
2026-04-20 19:00 47.65035 -114.07042 4035 ft 111 kts 175°
2026-04-20 19:00 47.64254 -114.07024 4085 ft 114 kts 179°
2026-04-20 19:00 47.63468 -114.06990 4164 ft 115 kts 169°
2026-04-20 19:01 47.62649 -114.06825 4266 ft 114 kts 174°
2026-04-20 19:01 47.61952 -114.06679 4664 ft 97 kts 165°
2026-04-20 19:01 47.61239 -114.06487 4654 ft 112 kts 176°
2026-04-20 19:01 47.60409 -114.06548 4593 ft 124 kts 175°
2026-04-20 19:02 47.59501 -114.06402 4415 ft 137 kts 173°
2026-04-20 19:02 47.58564 -114.06421 4411 ft 131 kts 178°
2026-04-20 19:02 47.57661 -114.06445 4432 ft 129 kts 176°
2026-04-20 19:02 47.56773 -114.06524 4419 ft 131 kts 189°
2026-04-20 19:03 47.56769 -114.07478 4109 ft 134 kts 327°
2026-04-20 19:03 47.57619 -114.07698 3919 ft 119 kts 344°
2026-04-20 19:03 47.58430 -114.08019 3607 ft 120 kts 339°
2026-04-20 19:03 47.59217 -114.08155 3599 ft 109 kts 346°
2026-04-20 19:04 47.59986 -114.08233 3461 ft 115 kts 344°
2026-04-20 19:04 47.60604 -114.08696 3484 ft 90 kts 301°
2026-04-20 19:04 47.60379 -114.09133 3498 ft 83 kts 140°
2026-04-20 19:04 47.60382 -114.08334 3526 ft 93 kts 58°
2026-04-20 19:05 47.60751 -114.07474 3589 ft 104 kts 38°
2026-04-20 19:05 47.61264 -114.06704 3766 ft 101 kts 40°
2026-04-20 19:05 47.61553 -114.06097 3787 ft 112 kts 51°
2026-04-20 19:05 47.61908 -114.04685 4009 ft 114 kts 77°
2026-04-20 19:06 47.61938 -114.03903 4127 ft 117 kts 82°
2026-04-20 19:06 47.61930 -114.02753 4342 ft 94 kts 113°
2026-04-20 19:06 47.61570 -114.02122 4923 ft 64 kts 86°
2026-04-20 19:06 47.61841 -114.02586 4629 ft 123 kts 285°
2026-04-20 19:07 47.62458 -114.03518 4663 ft 132 kts 323°
2026-04-20 19:07 47.63290 -114.04177 4456 ft 139 kts 321°
2026-04-20 19:07 47.64088 -114.05039 4170 ft 144 kts 321°
2026-04-20 19:07 47.64986 -114.05125 4183 ft 132 kts 20°
2026-04-20 19:08 47.65857 -114.04786 4150 ft 133 kts 351°
2026-04-20 19:08 47.67456 -114.05451 3843 ft 121 kts 310°
2026-04-20 19:08 47.67698 -114.06650 3634 ft 130 kts 258°
2026-04-20 19:09 47.67303 -114.07907 3344 ft 125 kts 238°
2026-04-20 19:09 47.66765 -114.08628 3581 ft 90 kts 173°
2026-04-20 19:09 47.66597 -114.07880 3527 ft 99 kts 49°
2026-04-20 19:09 47.67223 -114.07618 3273 ft 108 kts 335°
2026-04-20 19:10 47.67611 -114.08162 3378 ft 77 kts 255°
2026-04-20 19:10 47.67326 -114.08852 3326 ft 82 kts 227°
2026-04-20 19:10 47.67454 -114.09170 3288 ft 74 kts 71°
2026-04-20 19:10 47.67460 -114.08337 3282 ft 85 kts 83°
2026-04-20 19:11 47.67272 -114.07496 3279 ft 79 kts 131°
2026-04-20 19:11 47.67088 -114.06945 3317 ft 76 kts 46°
2026-04-20 19:11 47.67506 -114.06338 3291 ft 65 kts 49°
2026-04-20 19:11 47.67701 -114.06631 3302 ft 71 kts 228°
2026-04-20 19:12 47.67422 -114.07244 3309 ft 76 kts 253°
2026-04-20 19:12 47.67369 -114.08058 3295 ft 68 kts 265°
2026-04-20 19:12 47.67261 -114.08735 3371 ft 78 kts 199°
2026-04-20 19:12 47.66932 -114.08266 3373 ft 84 kts 78°
2026-04-20 19:13 47.67317 -114.07675 3226 ft 99 kts 339°
2026-04-20 19:13 47.67415 -114.08363 3291 ft 79 kts 232°
2026-04-20 19:13 47.67088 -114.08980 3345 ft 86 kts 204°
2026-04-20 19:13 47.66510 -114.09230 3473 ft 73 kts 195°
2026-04-20 19:14 47.66000 -114.09467 3555 ft 80 kts 187°
2026-04-20 19:14 47.65470 -114.09656 3692 ft 76 kts 188°
2026-04-20 19:14 47.64901 -114.09599 3662 ft 94 kts 150°
2026-04-20 19:14 47.64355 -114.09172 3830 ft 84 kts 144°
2026-04-20 19:15 47.63839 -114.08633 3785 ft 101 kts 143°
2026-04-20 19:15 47.63202 -114.08059 3774 ft 106 kts 139°
2026-04-20 19:15 47.62552 -114.07408 3738 ft 121 kts 137°
2026-04-20 19:15 47.61870 -114.06624 3681 ft 127 kts 140°
2026-04-20 19:16 47.61160 -114.05944 3926 ft 115 kts 145°
2026-04-20 19:16 47.60474 -114.05329 3998 ft 118 kts 150°
2026-04-20 19:16 47.59739 -114.04770 4064 ft 117 kts 147°
2026-04-20 19:16 47.59061 -114.04161 4235 ft 115 kts 146°
2026-04-20 19:17 47.58387 -114.03492 4328 ft 118 kts 147°
2026-04-20 19:17 47.57651 -114.02904 4446 ft 121 kts 146°
2026-04-20 19:17 47.56907 -114.02168 4255 ft 139 kts 139°
2026-04-20 19:17 47.56032 -114.01609 4069 ft 135 kts 191°
2026-04-20 19:18 47.55272 -114.02250 4043 ft 132 kts 209°
2026-04-20 19:18 47.54439 -114.02773 4054 ft 124 kts 191°
2026-04-20 19:18 47.53632 -114.03072 4124 ft 118 kts 191°
2026-04-20 19:18 47.52858 -114.03261 4287 ft 113 kts 181°
2026-04-20 19:19 47.52012 -114.03378 4202 ft 126 kts 180°
2026-04-20 19:19 47.51140 -114.03415 4203 ft 127 kts 178°
2026-04-20 19:19 47.50241 -114.03542 4165 ft 129 kts 179°
2026-04-20 19:19 47.49388 -114.03580 4157 ft 121 kts 174°
2026-04-20 19:20 47.48537 -114.03538 4045 ft 123 kts 171°
2026-04-20 19:20 47.47694 -114.03588 3992 ft 117 kts 182°
2026-04-20 19:20 47.46909 -114.03737 3991 ft 113 kts 182°
2026-04-20 19:20 47.46123 -114.03896 3926 ft 115 kts 183°
2026-04-20 19:21 47.45332 -114.04072 3942 ft 115 kts 182°
2026-04-20 19:21 47.44528 -114.04257 3910 ft 119 kts 187°
2026-04-20 19:21 47.43723 -114.04484 3986 ft 116 kts 186°
2026-04-20 19:21 47.42910 -114.04670 4034 ft 118 kts 184°
2026-04-20 19:22 47.42100 -114.04808 4103 ft 119 kts 182°
2026-04-20 19:22 47.41259 -114.04950 4140 ft 122 kts 182°
2026-04-20 19:22 47.40409 -114.05067 4164 ft 125 kts 179°
2026-04-20 19:22 47.39522 -114.05159 4089 ft 131 kts 174°
2026-04-20 19:23 47.38625 -114.05094 4085 ft 129 kts 177°
2026-04-20 19:23 47.37707 -114.05114 4040 ft 136 kts 175°
2026-04-20 19:23 47.36753 -114.05050 3967 ft 141 kts 173°
2026-04-20 19:23 47.35827 -114.04996 4162 ft 127 kts 178°
2026-04-20 19:24 47.34965 -114.05113 4367 ft 116 kts 190°
2026-04-20 19:24 47.34197 -114.05388 4549 ft 114 kts 201°
2026-04-20 19:24 47.33497 -114.05969 4792 ft 99 kts 226°
2026-04-20 19:24 47.32867 -114.06547 4846 ft 105 kts 201°
2026-04-20 19:25 47.32363 -114.07061 5415 ft 79 kts 211°
2026-04-20 19:25 47.31887 -114.07586 5674 ft 92 kts 221°
2026-04-20 19:25 47.31376 -114.08227 5878 ft 99 kts 205°
2026-04-20 19:25 47.30618 -114.08669 5214 ft 129 kts 188°
2026-04-20 19:26 47.29743 -114.08840 5053 ft 123 kts 175°
2026-04-20 19:26 47.28907 -114.08763 5073 ft 115 kts 167°
2026-04-20 19:26 47.28142 -114.08602 5167 ft 107 kts 167°
2026-04-20 19:26 47.27461 -114.08504 5348 ft 95 kts 174°
2026-04-20 19:27 47.26798 -114.08543 5391 ft 97 kts 178°
2026-04-20 19:27 47.26082 -114.08584 5296 ft 108 kts 171°
2026-04-20 19:27 47.25331 -114.08569 5258 ft 108 kts 176°
2026-04-20 19:27 47.24583 -114.08594 5268 ft 108 kts 174°
2026-04-20 19:28 47.23804 -114.08545 5217 ft 112 kts 170°
2026-04-20 19:28 47.23010 -114.08464 5166 ft 117 kts 172°